Content
SEND FEEDBACK

Daily
Averages
Monthly
Summary
United States of America

ACHANG BAY, GUAM


Home > North America > United States > Guam
Elevation: 10 meters     Latitude: 13 16N     Longitude: 144 45E

WEATHER
 
SELECT A DAY
Number of Records: 342,554;   Date Range: 1/1/95 - 9/16/14
 
SHARE

PRINT THIS DATA

[ ← Previous Day ]
WEATHER ALMANAC - 26 MARCH, 2013
[ Next Day → ]
[ °F ]   °C
Weather ElementAverageHighLow
Temperature25.2 °C29 °C (2:00 pm)23 °C (8:41 am)
Dewpoint23 °C24 °C (9:56 am)22 °C (12:05 am)
Humidity87.8 %100 % (8:41 am)72 % (2:55 pm)
Barometer1011.2 hPa1012.5 hPa (9:14 am)1008.8 hPa (2:55 pm)
Wind Speed25.6 km/h35.2 km/h (9:06 am)
Wind Gust50.1 km/h (11:04 am)
Weather ElementAverage
Visibility12.9 km
Wind DirectionENE (74.9 °)

Weather ElementTotal
Precipitation---
Cooling Degree Days7.7 (Base 18.3)
Growing Degree Days16 (Base 10)
Averaged from 128 records on 26 March, 2013
WEATHER CONDITIONS BREAKOUT
WIND DIRECTION BREAKOUT
WEATHER BY HOUR - 26 MARCH, 2013
[ °F ]   °C
Local TimeTemperatureDewpointHumidityBarometerVisibilityWind DirectionWind SpeedGust SpeedPrecipitationEventsConditions
12:05 AM25 °C22 °C83 %1011.9 hPa16.1 kmENE (60°)20.4 km/hScattered Clouds
12:15 AM26 °C22 °C78 %1011.9 hPa16.1 kmENE (60°)20.4 km/hMostly Cloudy
12:32 AM26 °C22 °C78 %1011.5 hPa16.1 kmNE (50°)24.1 km/hScattered Clouds
12:35 AM26 °C23 °C83 %1011.5 hPa16.1 kmNE (50°)20.4 km/hMostly Cloudy
12:46 AM26 °C22 °C78 %1011.5 hPa16.1 kmENE (60°)20.4 km/hScattered Clouds
12:54 AM25 °C22 °C83 %1011.2 hPa16.1 kmNE (50°)24.1 km/hMostly Cloudy
12:55 AM25.5 °C22.5 °C83 %1011.2 hPa16.1 kmNE (50°)22.2 km/hMostly Cloudy
1:01 AM26 °C23 °C83 %1011.2 hPa16.1 kmENE (60°)20.4 km/hScattered Clouds
1:12 AM25 °C22 °C83 %1011.2 hPa16.1 kmNE (50°)22.2 km/hMostly Cloudy
1:24 AM25 °C23 °C89 %1010.8 hPa16.1 kmNE (50°)18.5 km/hScattered Clouds
1:55 AM25.4 °C22.6 °C84 %1010.5 hPa16.1 kmNE (50°)22.2 km/hScattered Clouds
2:00 AM25 °C23 °C89 %1010.2 hPa16.1 kmNE (50°)22.2 km/hMostly Cloudy
2:08 AM26 °C22 °C78 %1010.5 hPa16.1 kmNE (50°)24.1 km/hScattered Clouds
2:15 AM26 °C23 °C83 %1010.2 hPa16.1 kmNE (50°)20.4 km/hMostly Cloudy
2:27 AM26 °C23 °C83 %1010.2 hPa16.1 kmNE (50°)24.1 km/hScattered Clouds
2:36 AM26 °C23 °C83 %1009.8 hPa16.1 kmNE (50°)29.6 km/hRainLight Rain
2:42 AM25 °C23 °C89 %1009.8 hPa16.1 kmENE (70°)27.8 km/h40.7 km/hRainLight Rain
2:47 AM25 °C23 °C89 %1010.2 hPa16.1 kmENE (70°)24.1 km/hRainLight Rain
2:48 AM25 °C23 °C89 %1010.2 hPa16.1 kmENE (70°)24.1 km/hMostly Cloudy
2:55 AM24.6 °C22.7 °C89 %1010.2 hPaENE (70°)24.1 km/hMostly Cloudy
3:05 AM24 °C23 °C94 %1010.2 hPa16.1 kmENE (70°)27.8 km/hScattered Clouds
3:50 AM24 °C23 °C94 %1009.8 hPa16.1 kmNE (50°)24.1 km/hMostly Cloudy
3:55 AM24.6 °C23.2 °C92 %1009.8 hPa16.1 kmNE (50°)27.8 km/h38.9 km/hMostly Cloudy
3:56 AM25 °C23 °C89 %1009.8 hPa14.5 kmENE (60°)33.3 km/h38.9 km/hRainLight Rain
4:08 AM24 °C23 °C94 %1009.8 hPa16.1 kmENE (70°)24.1 km/hMostly Cloudy
4:12 AM24 °C23 °C94 %1009.8 hPa16.1 kmENE (60°)24.1 km/hMostly Cloudy
4:15 AM24 °C23 °C94 %1009.8 hPa16.1 kmENE (60°)25.9 km/hScattered Clouds
4:55 AM24.2 °C22.7 °C91 %1010.2 hPa16.1 kmENE (70°)20.4 km/hScattered Clouds
5:04 AM24 °C23 °C94 %1010.2 hPa16.1 kmENE (70°)24.1 km/hMostly Cloudy
5:45 AM24 °C22 °C89 %1010.5 hPa16.1 kmENE (60°)20.4 km/hOvercast
5:46 AM24 °C22 °C89 %1010.5 hPa16.1 kmENE (60°)22.2 km/hOvercast
5:48 AM24 °C23 °C94 %1010.5 hPa16.1 kmENE (60°)24.1 km/hOvercast
5:55 AM23.9 °C22.5 °C92 %1010.5 hPa16.1 kmENE (60°)22.2 km/hMostly Cloudy
6:04 AM24 °C23 °C94 %1010.5 hPa16.1 kmENE (60°)20.4 km/hMostly Cloudy
6:09 AM24 °C23 °C94 %1010.5 hPa16.1 kmENE (60°)22.2 km/hOvercast
6:26 AM24 °C23 °C94 %1010.5 hPa16.1 kmNE (50°)22.2 km/hMostly Cloudy
6:55 AM24.3 °C22.8 °C91 %1011.2 hPa16.1 kmNE (50°)25.9 km/hMostly Cloudy
7:11 AM24 °C23 °C94 %1011.2 hPa16.1 kmNE (50°)22.2 km/hMostly Cloudy
7:25 AM25 °C23 °C89 %1011.2 hPa16.1 kmENE (60°)24.1 km/hMostly Cloudy
7:34 AM25 °C23 °C89 %1011.2 hPa16.1 kmENE (60°)24.1 km/hMostly Cloudy
7:45 AM25 °C23 °C89 %1011.5 hPa16.1 kmENE (60°)25.9 km/hMostly Cloudy
7:54 AM25 °C23 °C89 %1011.5 hPa16.1 kmENE (60°)24.1 km/hMostly Cloudy
7:55 AM25 °C22.9 °C88 %1011.5 hPa16.1 kmENE (60°)22.2 km/hMostly Cloudy
7:57 AM25 °C23 °C89 %1011.5 hPa16.1 kmENE (60°)24.1 km/hMostly Cloudy
8:21 AM25 °C23 °C89 %1011.9 hPa1.3 kmEast (90°)31.5 km/h48.1 km/hLight Drizzle
8:23 AM24 °C23 °C94 %1011.9 hPa8 kmEast (100°)31.5 km/h48.1 km/hLight Drizzle
8:25 AM24 °C23 °C94 %1011.9 hPa4.8 kmEast (100°)29.6 km/h48.1 km/hRainLight Rain
8:27 AM24 °C23 °C94 %1011.9 hPa4 kmESE (110°)29.6 km/h48.1 km/hRainRain
8:28 AM24 °C22 °C89 %1012.2 hPa3.2 kmEast (100°)25.9 km/h48.1 km/hRainRain
8:30 AM24 °C22 °C89 %1012.2 hPa2.9 kmEast (100°)25.9 km/h42.6 km/hRainRain
8:36 AM24 °C23 °C94 %1012.2 hPa3.2 kmEast (90°)25.9 km/h37 km/hRainLight Rain
8:39 AM24 °C23 °C94 %1012.2 hPa4 kmEast (90°)20.4 km/h37 km/hRainLight Rain
8:41 AM23 °C23 °C100 %1012.2 hPa4.8 kmEast (100°)20.4 km/h33.3 km/hRainLight Rain
8:46 AM24 °C23 °C94 %1012.2 hPa6.4 kmEast (100°)18.5 km/hOvercast
8:47 AM24 °C23 °C94 %1012.2 hPa6.4 kmEast (100°)18.5 km/hOvercast
8:48 AM24 °C23 °C94 %1012.2 hPa6.4 kmEast (90°)22.2 km/hOvercast
8:54 AM24 °C23 °C94 %1012.2 hPa4.8 kmEast (100°)27.8 km/h42.6 km/hRainLight Rain
8:55 AM23.8 °C23.1 °C96 %1012.2 hPa4.8 kmEast (100°)29.6 km/h42.6 km/h0 mmRainLight Rain
9:05 AM24 °C23 °C94 %1012.2 hPa4.8 kmESE (110°)31.5 km/h46.3 km/hRainLight Rain
9:06 AM24 °C23 °C94 %1012.2 hPa4 kmESE (110°)35.2 km/h46.3 km/hRainLight Rain
9:07 AM23 °C23 °C100 %1012.2 hPa4 kmESE (110°)35.2 km/h46.3 km/hRainLight Rain
9:09 AM23 °C23 °C100 %1012.2 hPa3.2 kmESE (110°)31.5 km/h46.3 km/hRainLight Rain
9:10 AM23 °C23 °C100 %1012.2 hPa2.9 kmESE (110°)29.6 km/h46.3 km/hRainLight Rain
9:14 AM23 °C23 °C100 %1012.5 hPa1.9 kmEast (100°)27.8 km/h42.6 km/hRainLight Rain
9:16 AM23 °C23 °C100 %1012.5 hPa1.9 kmEast (100°)24.1 km/h42.6 km/hRainHeavy Rain
9:23 AM23 °C23 °C100 %1012.5 hPa2.4 kmEast (100°)24.1 km/h38.9 km/hRainLight Rain
9:26 AM23 °C23 °C100 %1012.5 hPa3.2 kmEast (90°)22.2 km/h38.9 km/hRainLight Rain
9:27 AM23 °C23 °C100 %1012.5 hPa4 kmEast (90°)24.1 km/h38.9 km/hRainLight Rain
9:28 AM23 °C23 °C100 %1012.5 hPa4.8 kmEast (90°)24.1 km/hRainLight Rain
9:32 AM23 °C23 °C100 %1012.5 hPa4.8 kmEast (90°)20.4 km/hRainRain
9:37 AM23 °C23 °C100 %1012.5 hPa4 kmEast (90°)16.7 km/hRainLight Rain
9:46 AM24 °C23 °C94 %1012.5 hPa3.2 kmEast (80°)24.1 km/hRainRain
9:49 AM24 °C23 °C94 %1012.5 hPa2.9 kmEast (80°)25.9 km/hRainRain
9:50 AM24 °C23 °C94 %1012.5 hPa3.2 kmEast (80°)25.9 km/hRainRain
9:53 AM24 °C23 °C94 %1012.2 hPa4 kmEast (80°)24.1 km/hRainRain
9:55 AM24.1 °C23.5 °C96 %1012.2 hPa4.8 kmEast (90°)27.8 km/h0 mmRainLight Rain
9:56 AM24 °C24 °C100 %1012.2 hPa4.8 kmEast (80°)29.6 km/h38.9 km/hRainLight Rain
9:58 AM24 °C24 °C100 %1012.2 hPa8 kmEast (90°)29.6 km/h38.9 km/hRainLight Rain
10:00 AM24 °C24 °C100 %1012.2 hPa14.5 kmEast (90°)31.5 km/h44.4 km/hOvercast
10:09 AM24 °C23 °C94 %1012.5 hPa16.1 kmEast (80°)27.8 km/h44.4 km/hOvercast
10:13 AM24 °C23 °C94 %1012.5 hPa16.1 kmEast (80°)27.8 km/h44.4 km/hMostly Cloudy
10:19 AM24 °C23 °C94 %1012.5 hPa16.1 kmEast (80°)29.6 km/h40.7 km/hMostly Cloudy
10:49 AM25 °C23 °C89 %1011.9 hPa16.1 kmEast (80°)35.2 km/h42.6 km/hMostly Cloudy
10:54 AM25 °C23 °C89 %1012.2 hPa14.5 kmEast (80°)27.8 km/h42.6 km/hMostly Cloudy
10:55 AM25.1 °C23.4 °C90 %1012.2 hPa14.5 kmENE (70°)31.5 km/h44.4 km/h0 mmLight Drizzle
11:04 AM25 °C23 °C89 %1012.2 hPa16.1 kmENE (70°)33.3 km/h50.1 km/hMostly Cloudy
11:18 AM25 °C23 °C89 %1011.9 hPa16.1 kmEast (80°)27.8 km/h37 km/hMostly Cloudy
11:55 AM27.1 °C23.2 °C79 %1011.2 hPa16.1 kmEast (90°)31.5 km/h40.7 km/h0 mmScattered Clouds
12:55 PM28.2 °C23.2 °C74 %1010.2 hPa16.1 kmEast (80°)24.1 km/h38.9 km/hScattered Clouds
1:26 PM28 °C24 °C79 %1009.8 hPa16.1 kmENE (70°)27.8 km/h38.9 km/hMostly Cloudy
1:27 PM28 °C24 °C79 %1009.8 hPa16.1 kmEast (80°)25.9 km/h38.9 km/hMostly Cloudy
1:30 PM28 °C24 °C79 %1009.8 hPa16.1 kmEast (80°)25.9 km/h37 km/hMostly Cloudy
1:34 PM28 °C24 °C79 %1009.8 hPa16.1 kmEast (80°)24.1 km/h35.2 km/hMostly Cloudy
1:45 PM28 °C24 °C79 %1009.5 hPa16.1 kmEast (80°)27.8 km/hMostly Cloudy
1:52 PM28 °C23 °C74 %1009.5 hPa16.1 kmEast (90°)27.8 km/hScattered Clouds
1:55 PM28.7 °C23.6 °C74 %1009.5 hPa16.1 kmEast (90°)27.8 km/hScattered Clouds
2:00 PM29 °C24 °C74 %1009.5 hPa16.1 kmENE (70°)27.8 km/h37 km/hMostly Cloudy
2:06 PM28 °C23 °C74 %1009.1 hPa16.1 kmEast (80°)31.5 km/h42.6 km/hScattered Clouds
2:55 PM28.7 °C23.3 °C72 %1008.8 hPa16.1 kmENE (70°)31.5 km/h38.9 km/hPartly Cloudy
3:32 PM28 °C23 °C74 %1009.1 hPa16.1 kmENE (70°)31.5 km/h40.7 km/hMostly Cloudy
3:41 PM28 °C23 °C74 %1008.8 hPa16.1 kmEast (80°)31.5 km/h42.6 km/hMostly Cloudy
3:55 PM28.2 °C23 °C73 %1009.1 hPa16.1 kmENE (70°)33.3 km/hPartly Cloudy
4:33 PM28 °C23 °C74 %1009.5 hPa16.1 kmENE (70°)29.6 km/h38.9 km/hMostly Cloudy
4:50 PM27 °C23 °C79 %1009.5 hPa16.1 kmEast (80°)27.8 km/hScattered Clouds
4:54 PM27 °C23 °C79 %1009.5 hPa16.1 kmENE (70°)25.9 km/hMostly Cloudy
4:55 PM27.3 °C23 °C77 %1009.5 hPa16.1 kmENE (70°)27.8 km/hMostly Cloudy
5:05 PM27 °C23 °C79 %1009.5 hPa16.1 kmENE (70°)25.9 km/hScattered Clouds
5:08 PM27 °C23 °C79 %1009.5 hPa16.1 kmENE (70°)27.8 km/hMostly Cloudy
5:29 PM27 °C23 °C79 %1009.8 hPa16.1 kmEast (80°)25.9 km/h40.7 km/hScattered Clouds
5:55 PM26.6 °C22.7 °C79 %1009.8 hPa16.1 kmEast (80°)22.2 km/hPartly Cloudy
6:32 PM26 °C23 °C83 %1010.2 hPa16.1 kmEast (80°)20.4 km/hMostly Cloudy
6:51 PM26 °C23 °C83 %1010.5 hPa16.1 kmEast (80°)29.6 km/hScattered Clouds
6:55 PM26.1 °C22.7 °C81 %1010.5 hPa16.1 kmEast (80°)24.1 km/hScattered Clouds
7:55 PM26 °C22.5 °C81 %1011.2 hPa16.1 kmEast (80°)20.4 km/h35.2 km/hPartly Cloudy
8:55 PM25.8 °C22.8 °C83 %1011.9 hPa16.1 kmEast (80°)25.9 km/hPartly Cloudy
9:54 PM26 °C23 °C83 %1012.2 hPa16.1 kmENE (70°)20.4 km/hMostly Cloudy
9:55 PM25.7 °C23.1 °C85 %1012.2 hPa16.1 kmENE (70°)20.4 km/hMostly Cloudy
9:57 PM26 °C23 °C83 %1012.2 hPa16.1 kmENE (70°)24.1 km/hMostly Cloudy
10:09 PM26 °C23 °C83 %1012.2 hPa16.1 kmENE (70°)18.5 km/h31.5 km/hMostly Cloudy
10:13 PM26 °C23 °C83 %1012.2 hPa16.1 kmENE (70°)24.1 km/h33.3 km/hScattered Clouds
10:47 PM26 °C23 °C83 %1012.2 hPa16.1 kmENE (70°)24.1 km/hMostly Cloudy
10:55 PM25.7 °C23 °C85 %1012.2 hPa16.1 kmENE (70°)25.9 km/hMostly Cloudy
11:17 PM26 °C23 °C83 %1011.9 hPa16.1 kmENE (70°)27.8 km/hMostly Cloudy
11:23 PM26 °C23 °C83 %1011.9 hPa16.1 kmENE (70°)29.6 km/hMostly Cloudy
11:29 PM26 °C23 °C83 %1011.9 hPa16.1 kmENE (70°)24.1 km/hMostly Cloudy
11:43 PM26 °C23 °C83 %1011.9 hPa16.1 kmENE (70°)25.9 km/hMostly Cloudy
11:48 PM26 °C23 °C83 %1011.9 hPa16.1 kmENE (70°)22.2 km/hMostly Cloudy
11:55 PM25.5 °C23.1 °C86 %1011.9 hPa16.1 kmENE (70°)22.2 km/hMostly Cloudy
Hourly data recorded from PGUA, located 0 kilometers away from Achang Bay, Guam







STORIES FROM OUR PARTNERS